CSN5255 ZSNJ-ZSAM

Flight info

Callsign CSN5255
Flight time N/A
Altitude 36100
Route TES42X TESIG A470 ENVEN ENVEN8X
Aircraft A320/M-SDE3FGHIRWY/LB1

Departure

Time 2026-04-30 14:58
Airport Nanjing Lukou International Airport (ZSNJ)

Arrival

Time N/A
Airport Xiamen Gaoqi International Airport (ZSAM)
Time Latitude Longitude Altitude Speed Heading
2026-04-30 14:57 31.64397 118.72204 6905 ft 251 kts 160°
2026-04-30 14:58 31.62495 118.75306 8221 ft 246 kts 81°
2026-04-30 14:58 31.62847 118.77249 8932 ft 244 kts 66°
2026-04-30 14:58 31.64001 118.81034 10404 ft 250 kts 64°
2026-04-30 14:59 31.65131 118.84957 11772 ft 257 kts 66°
2026-04-30 15:00 31.66663 118.91101 13853 ft 268 kts 66°
2026-04-30 15:00 31.67169 118.95523 15036 ft 291 kts 96°
2026-04-30 15:01 31.64810 118.99642 15590 ft 336 kts 144°
2026-04-30 15:01 31.63520 119.00730 15675 ft 351 kts 144°
2026-04-30 15:01 31.58557 119.04888 15967 ft 398 kts 144°
2026-04-30 15:02 31.56276 119.06832 16228 ft 410 kts 143°
2026-04-30 15:02 31.53997 119.08821 16696 ft 416 kts 143°
2026-04-30 15:03 31.46972 119.15025 18291 ft 430 kts 144°
2026-04-30 15:03 31.42139 119.19266 19212 ft 439 kts 144°
2026-04-30 15:04 31.37192 119.23577 20116 ft 448 kts 145°
2026-04-30 15:04 31.29576 119.30211 21398 ft 462 kts 145°
2026-04-30 15:05 31.21768 119.37000 22618 ft 475 kts 146°
2026-04-30 15:06 31.16420 119.41652 23404 ft 483 kts 146°
2026-04-30 15:06 31.10989 119.46399 24101 ft 492 kts 146°
2026-04-30 15:07 31.05470 119.51215 24759 ft 499 kts 146°
2026-04-30 15:07 30.99872 119.56100 25411 ft 506 kts 146°
2026-04-30 15:08 30.94225 119.61026 26062 ft 513 kts 147°
2026-04-30 15:08 30.85553 119.68547 27010 ft 523 kts 147°
2026-04-30 15:09 30.79676 119.73637 27633 ft 529 kts 147°
2026-04-30 15:09 30.73761 119.78757 28282 ft 536 kts 148°
2026-04-30 15:10 30.67743 119.83951 28919 ft 542 kts 148°
2026-04-30 15:11 30.55472 119.94520 30223 ft 553 kts 147°
2026-04-30 15:11 30.48987 119.98901 30985 ft 532 kts 169°
2026-04-30 15:12 30.38654 120.00024 32282 ft 473 kts 203°
2026-04-30 15:13 30.32644 119.97840 33208 ft 436 kts 220°
2026-04-30 15:14 30.22399 119.91097 34985 ft 417 kts 224°
2026-04-30 15:14 30.14941 119.86154 36121 ft 411 kts 224°
2026-04-30 15:16 30.02403 119.77818 36239 ft 419 kts 224°
2026-04-30 15:17 29.92364 119.71071 36237 ft 418 kts 224°
2026-04-30 15:18 29.78998 119.66110 36220 ft 470 kts 195°